Time,TemperatureF,DewpointF,PressureIn,WindDirection,WindDirectionDegrees,WindSpeedMPH,WindSpeedGustMPH,Humidity,HourlyPrecipIn,Conditions,Clouds,dailyrainin,SoftwareType,DateUTC
2014-01-16 00:00:00,21.0,15.0,29.81,SSW,202,10.0,20.0,83,0.00,,CLR,0.00,VWS V14.01,2014-01-16 06:00:00,
2014-01-16 00:04:00,19.4,15.0,29.80,SSW,211,7.0,19.0,83,0.00,,,0.00,weatherlink.com 1.10,2014-01-16 06:04:00,
2014-01-16 00:19:00,19.6,15.0,29.78,SSW,205,6.0,21.0,83,0.00,,,0.00,weatherlink.com 1.10,2014-01-16 06:19:00,
2014-01-16 00:30:00,21.0,15.6,29.75,SSW,202,10.0,21.0,84,0.00,,CLR,0.00,VWS V14.01,2014-01-16 06:30:00,
2014-01-16 00:34:00,19.6,16.0,29.75,SSW,199,10.0,19.0,84,0.00,,,0.00,weatherlink.com 1.10,2014-01-16 06:34:00,
2014-01-16 00:49:00,20.0,16.0,29.74,South,176,17.0,17.0,84,0.00,,,0.00,weatherlink.com 1.10,2014-01-16 06:49:00,
2014-01-16 01:00:00,22.0,16.2,29.75,SSW,202,10.0,21.0,84,0.00,,CLR,0.00,VWS V14.01,2014-01-16 07:00:00,
2014-01-16 01:04:00,20.4,16.0,29.75,SW,217,12.0,19.0,83,0.00,,,0.00,weatherlink.com 1.10,2014-01-16 07:04:00,
2014-01-16 01:19:00,20.6,16.0,29.74,SW,214,7.0,20.0,83,0.00,,,0.00,weatherlink.com 1.10,2014-01-16 07:19:00,
2014-01-16 01:30:00,22.0,16.5,29.73,SSW,202,10.0,21.0,84,0.00,,CLR,0.00,VWS V14.01,2014-01-16 07:30:00,
2014-01-16 01:34:00,20.6,17.0,29.73,SSW,207,8.0,17.0,84,0.00,,,0.00,weatherlink.com 1.10,2014-01-16 07:34:00,
2014-01-16 01:49:00,20.8,17.0,29.73,South,172,10.0,16.0,84,0.00,,,0.00,weatherlink.com 1.10,2014-01-16 07:49:00,
2014-01-16 02:00:00,22.0,16.8,29.72,SSW,202,9.0,17.0,84,0.00,,CLR,0.00,VWS V14.01,2014-01-16 08:00:00,
2014-01-16 02:04:00,21.0,17.0,29.72,SSW,211,13.0,17.0,84,0.00,,,0.00,weatherlink.com 1.10,2014-01-16 08:04:00,
2014-01-16 02:19:00,21.3,17.0,29.69,SW,215,11.0,24.0,83,0.00,,,0.00,weatherlink.com 1.10,2014-01-16 08:19:00,
2014-01-16 02:30:00,23.0,17.4,29.69,SSW,202,12.0,24.0,84,0.00,,CLR,0.00,VWS V14.01,2014-01-16 08:30:00,
2014-01-16 02:34:00,21.5,17.0,29.69,SSW,205,17.0,17.0,84,0.00,,,0.00,weatherlink.com 1.10,2014-01-16 08:34:00,
2014-01-16 02:49:00,21.6,18.0,29.69,SSW,200,8.0,22.0,84,0.00,,,0.00,weatherlink.com 1.10,2014-01-16 08:49:00,
2014-01-16 03:00:00,23.0,17.7,29.68,SSW,202,11.0,23.0,84,0.00,,CLR,0.00,VWS V14.01,2014-01-16 09:00:00,
2014-01-16 03:04:00,21.9,18.0,29.68,SSW,207,13.0,20.0,84,0.00,,,0.00,weatherlink.com 1.10,2014-01-16 09:04:00,
2014-01-16 03:19:00,22.0,18.0,29.68,SW,225,12.0,22.0,84,0.00,,,0.00,weatherlink.com 1.10,2014-01-16 09:19:00,
2014-01-16 03:30:00,23.0,18.1,29.67,SSW,202,11.0,22.0,84,0.00,,CLR,0.00,VWS V14.01,2014-01-16 09:30:00,
2014-01-16 03:34:00,22.3,18.0,29.67,SW,225,8.0,21.0,84,0.00,,,0.00,weatherlink.com 1.10,2014-01-16 09:34:00,
2014-01-16 03:49:00,22.3,18.0,29.66,SSW,202,6.0,18.0,84,0.00,,,0.00,weatherlink.com 1.10,2014-01-16 09:49:00,
2014-01-16 04:00:00,24.0,18.5,29.66,SSW,202,9.0,18.0,84,0.00,,CLR,0.00,VWS V14.01,2014-01-16 10:00:00,
2014-01-16 04:04:00,22.6,19.0,29.66,SSE,148,5.0,16.0,84,0.00,,,0.00,weatherlink.com 1.10,2014-01-16 10:04:00,
2014-01-16 04:19:00,22.8,19.0,29.65,South,191,9.0,18.0,84,0.00,,,0.00,weatherlink.com 1.10,2014-01-16 10:19:00,
2014-01-16 04:30:00,24.0,18.8,29.64,SSW,202,9.0,19.0,84,0.00,,CLR,0.00,VWS V14.01,2014-01-16 10:30:00,
2014-01-16 04:34:00,22.9,19.0,29.64,SSW,195,11.0,16.0,85,0.00,,,0.00,weatherlink.com 1.10,2014-01-16 10:34:00,
2014-01-16 04:49:00,23.2,19.0,29.63,SSW,209,4.0,13.0,85,0.00,,,0.00,weatherlink.com 1.10,2014-01-16 10:49:00,
2014-01-16 05:00:00,25.0,19.9,29.62,SSW,202,7.0,15.0,86,0.00,,CLR,0.00,VWS V14.01,2014-01-16 11:00:00,
2014-01-16 05:04:00,23.6,20.0,29.62,SW,217,7.0,14.0,86,0.00,,,0.00,weatherlink.com 1.10,2014-01-16 11:04:00,
2014-01-16 05:19:00,24.2,21.0,29.61,SSW,207,7.0,17.0,87,0.00,,,0.00,weatherlink.com 1.10,2014-01-16 11:19:00,
2014-01-16 05:30:00,25.0,21.0,29.61,SSW,202,8.0,17.0,86,0.00,,CLR,0.00,VWS V14.01,2014-01-16 11:30:00,
2014-01-16 05:35:00,24.2,21.0,29.60,SW,222,6.0,15.0,87,0.00,,,0.00,weatherlink.com 1.10,2014-01-16 11:35:00,
2014-01-16 05:50:00,24.2,21.0,29.59,SSE,168,10.0,16.0,88,0.00,,,0.00,weatherlink.com 1.10,2014-01-16 11:50:00,
2014-01-16 06:00:00,26.0,21.8,29.59,SSW,202,8.0,17.0,88,0.00,,CLR,0.00,VWS V14.01,2014-01-16 12:00:00,
2014-01-16 06:05:00,24.7,22.0,29.59,South,191,4.0,15.0,89,0.00,,,0.00,weatherlink.com 1.10,2014-01-16 12:05:00,
2014-01-16 06:20:00,25.2,23.0,29.60,SSW,199,8.0,18.0,90,0.00,,,0.00,weatherlink.com 1.10,2014-01-16 12:20:00,
2014-01-16 06:30:00,27.0,23.0,29.59,SW,225,8.0,19.0,89,0.00,,CLR,0.00,VWS V14.01,2014-01-16 12:30:00,
2014-01-16 06:35:00,25.5,23.0,29.59,SW,227,9.0,16.0,90,0.00,,,0.00,weatherlink.com 1.10,2014-01-16 12:35:00,
2014-01-16 06:50:00,25.7,24.0,29.59,SW,226,9.0,14.0,91,0.00,,,0.00,weatherlink.com 1.10,2014-01-16 12:50:00,
2014-01-16 07:00:00,27.0,23.4,29.58,SSW,202,9.0,17.0,90,0.00,,CLR,0.00,VWS V14.01,2014-01-16 13:00:00,
2014-01-16 07:05:00,25.7,24.0,29.58,WSW,249,11.0,17.0,91,0.00,,,0.00,weatherlink.com 1.10,2014-01-16 13:05:00,
2014-01-16 07:20:00,25.6,23.0,29.57,SSW,203,8.0,18.0,91,0.00,,,0.00,weatherlink.com 1.10,2014-01-16 13:20:00,
2014-01-16 07:30:00,27.0,23.1,29.57,SSW,202,8.0,18.0,90,0.00,,CLR,0.00,VWS V14.01,2014-01-16 13:30:00,
2014-01-16 07:35:00,25.4,23.0,29.57,SW,221,8.0,14.0,92,0.00,,,0.00,weatherlink.com 1.10,2014-01-16 13:35:00,
2014-01-16 07:50:00,25.5,24.0,29.56,SSE,165,5.0,15.0,92,0.00,,,0.00,weatherlink.com 1.10,2014-01-16 13:50:00,
2014-01-16 08:00:00,27.0,23.7,29.56,SSW,202,8.0,16.0,90,0.00,,CLR,0.00,VWS V14.01,2014-01-16 14:00:00,
2014-01-16 08:05:00,25.9,24.0,29.56,South,186,4.0,17.0,92,0.00,,,0.00,weatherlink.com 1.10,2014-01-16 14:05:00,
2014-01-16 08:20:00,26.2,24.0,29.56,SW,234,12.0,15.0,91,0.00,,,0.00,weatherlink.com 1.10,2014-01-16 14:20:00,
2014-01-16 08:30:00,28.0,24.2,29.55,SSW,202,9.0,16.0,90,0.00,,CLR,0.00,VWS V14.01,2014-01-16 14:30:00,
2014-01-16 08:35:00,26.5,24.0,29.55,WSW,251,10.0,14.0,91,0.00,,,0.00,weatherlink.com 1.10,2014-01-16 14:35:00,
2014-01-16 08:50:00,27.0,25.0,29.56,South,177,11.0,17.0,91,0.00,,,0.00,weatherlink.com 1.10,2014-01-16 14:50:00,
2014-01-16 09:00:00,29.0,25.0,29.55,SSW,202,9.0,20.0,89,0.00,,CLR,0.00,VWS V14.01,2014-01-16 15:00:00,
2014-01-16 09:05:00,27.4,25.0,29.55,South,180,4.0,16.0,90,0.00,,,0.00,weatherlink.com 1.10,2014-01-16 15:05:00,
2014-01-16 09:20:00,27.8,25.0,29.55,SSW,210,7.0,16.0,90,0.00,,,0.00,weatherlink.com 1.10,2014-01-16 15:20:00,
2014-01-16 09:30:00,30.0,25.6,29.55,SSW,202,8.0,17.0,89,0.00,,CLR,0.00,VWS V14.01,2014-01-16 15:30:00,
2014-01-16 09:35:00,28.4,26.0,29.55,SSW,196,12.0,17.0,90,0.00,,,0.00,weatherlink.com 1.10,2014-01-16 15:35:00,
2014-01-16 09:50:00,29.1,27.0,29.54,SW,221,12.0,15.0,90,0.00,,,0.00,weatherlink.com 1.10,2014-01-16 15:50:00,
2014-01-16 10:00:00,31.0,26.8,29.53,SSW,202,9.0,19.0,88,0.00,,CLR,0.00,VWS V14.01,2014-01-16 16:00:00,
2014-01-16 10:05:00,29.6,27.0,29.53,SSW,210,9.0,17.0,89,0.00,,,0.00,weatherlink.com 1.10,2014-01-16 16:05:00,
2014-01-16 10:20:00,29.8,27.0,29.53,SW,232,10.0,15.0,89,0.00,,,0.00,weatherlink.com 1.10,2014-01-16 16:20:00,
2014-01-16 10:30:00,32.0,27.6,29.53,SW,225,9.0,16.0,88,0.00,,CLR,0.00,VWS V14.01,2014-01-16 16:30:00,
2014-01-16 10:35:00,30.3,28.0,29.53,SSW,209,8.0,16.0,90,0.00,,,0.00,weatherlink.com 1.10,2014-01-16 16:35:00,
2014-01-16 10:50:00,31.0,28.0,29.53,SSW,210,6.0,14.0,88,0.00,,,0.00,weatherlink.com 1.10,2014-01-16 16:50:00,
2014-01-16 11:00:00,33.0,28.1,29.52,SW,225,8.0,18.0,87,0.00,,CLR,0.00,VWS V14.01,2014-01-16 17:00:00,
2014-01-16 11:05:00,31.1,28.0,29.52,South,187,5.0,16.0,89,0.00,,,0.00,weatherlink.com 1.10,2014-01-16 17:05:00,
2014-01-16 11:20:00,31.0,29.0,29.51,SSW,209,9.0,14.0,91,0.00,,,0.00,weatherlink.com 1.10,2014-01-16 17:20:00,
2014-01-16 11:30:00,33.0,29.0,29.50,SW,225,9.0,16.0,90,0.00,,CLR,0.00,VWS V14.01,2014-01-16 17:30:00,
2014-01-16 11:35:00,31.2,29.0,29.50,SW,227,7.0,16.0,92,0.00,,,0.00,weatherlink.com 1.10,2014-01-16 17:35:00,
2014-01-16 11:50:00,31.5,30.0,29.49,SSW,203,8.0,19.0,92,0.00,,,0.00,weatherlink.com 1.10,2014-01-16 17:50:00,
2014-01-16 12:00:00,34.0,29.8,29.48,SW,225,10.0,20.0,90,0.00,,CLR,0.00,VWS V14.01,2014-01-16 18:00:00,
2014-01-16 12:06:00,32.0,30.0,29.48,SW,225,10.0,19.0,92,0.00,,,0.00,weatherlink.com 1.10,2014-01-16 18:06:00,
2014-01-16 12:21:00,32.3,31.0,29.47,West,277,9.0,15.0,93,0.00,,,0.00,weatherlink.com 1.10,2014-01-16 18:21:00,
2014-01-16 12:30:00,34.0,30.1,29.47,SW,225,10.0,19.0,89,0.00,,CLR,0.00,VWS V14.01,2014-01-16 18:30:00,
2014-01-16 12:36:00,32.5,30.0,29.47,SSW,209,6.0,17.0,91,0.00,,,0.00,weatherlink.com 1.10,2014-01-16 18:36:00,
2014-01-16 12:51:00,32.8,31.0,29.47,SSW,198,4.0,14.0,91,0.00,,,0.00,weatherlink.com 1.10,2014-01-16 18:51:00,
2014-01-16 13:00:00,35.0,30.5,29.46,SW,225,8.0,17.0,88,0.00,,CLR,0.00,VWS V14.01,2014-01-16 19:00:00,
2014-01-16 13:06:00,33.1,31.0,29.46,WSW,253,5.0,12.0,90,0.00,,,0.00,weatherlink.com 1.10,2014-01-16 19:06:00,
2014-01-16 13:21:00,33.2,31.0,29.46,SW,222,6.0,12.0,90,0.00,,,0.00,weatherlink.com 1.10,2014-01-16 19:21:00,
2014-01-16 13:30:00,34.0,30.7,29.46,SW,225,7.0,16.0,90,0.00,,CLR,0.00,VWS V14.01,2014-01-16 19:30:00,
2014-01-16 13:36:00,32.7,31.0,29.46,SSW,209,6.0,13.0,93,0.00,,,0.00,weatherlink.com 1.10,2014-01-16 19:36:00,
2014-01-16 13:51:00,32.4,31.0,29.46,West,271,8.0,13.0,94,0.00,,,0.00,weatherlink.com 1.10,2014-01-16 19:51:00,
2014-01-16 14:00:00,34.0,31.1,29.46,SW,225,7.0,14.0,92,0.00,,CLR,0.00,VWS V14.01,2014-01-16 20:00:00,
2014-01-16 14:06:00,32.4,31.0,29.46,SW,226,8.0,13.0,95,0.00,,,0.00,weatherlink.com 1.10,2014-01-16 20:06:00,
2014-01-16 14:21:00,32.8,32.0,29.45,WSW,242,3.0,10.0,95,0.00,,,0.00,weatherlink.com 1.10,2014-01-16 20:21:00,
2014-01-16 14:30:00,35.0,31.5,29.46,WSW,248,5.0,13.0,93,0.00,,CLR,0.00,VWS V14.01,2014-01-16 20:30:00,
2014-01-16 14:36:00,32.7,32.0,29.46,WNW,285,8.0,10.0,95,0.00,,,0.00,weatherlink.com 1.10,2014-01-16 20:36:00,
2014-01-16 14:51:00,32.7,32.0,29.46,SW,232,6.0,12.0,96,0.00,,,0.00,weatherlink.com 1.10,2014-01-16 20:51:00,
2014-01-16 15:00:00,35.0,31.7,29.46,WSW,248,5.0,12.0,93,0.00,,CLR,0.00,VWS V14.01,2014-01-16 21:00:00,
2014-01-16 15:06:00,32.8,32.0,29.46,WSW,246,8.0,11.0,96,0.01,,,0.01,weatherlink.com 1.10,2014-01-16 21:06:00,
2014-01-16 15:21:00,32.5,31.0,29.47,WSW,255,14.0,24.0,95,0.01,,,0.01,weatherlink.com 1.10,2014-01-16 21:21:00,
2014-01-16 15:30:00,33.0,28.7,29.48,West,270,10.0,25.0,88,0.01,,CLR,0.01,VWS V14.01,2014-01-16 21:30:00,
2014-01-16 15:36:00,31.0,28.0,29.49,WNW,295,18.0,25.0,88,0.01,,,0.01,weatherlink.com 1.10,2014-01-16 21:36:00,
2014-01-16 15:51:00,30.6,28.0,29.50,WNW,297,9.0,24.0,88,0.01,,,0.01,weatherlink.com 1.10,2014-01-16 21:51:00,
2014-01-16 16:00:00,32.0,27.1,29.50,West,270,14.0,25.0,86,0.01,,CLR,0.01,VWS V14.01,2014-01-16 22:00:00,
2014-01-16 16:06:00,30.4,27.0,29.51,West,259,15.0,23.0,87,0.00,,,0.01,weatherlink.com 1.10,2014-01-16 22:06:00,
2014-01-16 16:21:00,30.0,25.0,29.52,WSW,244,22.0,25.0,82,0.00,,,0.01,weatherlink.com 1.10,2014-01-16 22:21:00,
2014-01-16 16:30:00,31.0,24.1,29.53,West,270,14.0,27.0,81,0.01,,CLR,0.01,VWS V14.01,2014-01-16 22:30:00,
2014-01-16 16:36:00,29.4,23.0,29.53,West,275,12.0,26.0,77,0.00,,,0.01,weatherlink.com 1.10,2014-01-16 22:36:00,
2014-01-16 16:51:00,29.0,22.0,29.54,WNW,292,9.0,24.0,76,0.00,,,0.01,weatherlink.com 1.10,2014-01-16 22:51:00,
2014-01-16 17:00:00,30.0,22.5,29.55,West,270,14.0,28.0,78,0.00,,CLR,0.01,VWS V14.01,2014-01-16 23:00:00,
2014-01-16 17:06:00,28.2,21.0,29.56,WNW,291,23.0,28.0,74,0.00,,,0.01,weatherlink.com 1.10,2014-01-16 23:06:00,
2014-01-16 17:21:00,27.2,19.0,29.57,WNW,287,13.0,27.0,72,0.00,,,0.01,weatherlink.com 1.10,2014-01-16 23:21:00,
2014-01-16 17:30:00,28.0,16.7,29.58,West,270,16.0,27.0,70,0.00,,CLR,0.01,VWS V14.01,2014-01-16 23:30:00,
2014-01-16 17:36:00,25.7,16.0,29.58,WSW,253,12.0,27.0,67,0.00,,,0.01,weatherlink.com 1.10,2014-01-16 23:36:00,
2014-01-16 17:51:00,25.0,16.0,29.59,WNW,292,11.0,24.0,68,0.00,,,0.01,weatherlink.com 1.10,2014-01-16 23:51:00,
2014-01-16 18:00:00,26.0,15.2,29.60,West,270,14.0,27.0,70,0.00,,CLR,0.01,VWS V14.01,2014-01-17 00:00:00,
2014-01-16 18:06:00,24.4,15.0,29.60,WNW,295,11.0,25.0,67,0.00,,,0.01,weatherlink.com 1.10,2014-01-17 00:06:00,
2014-01-16 18:21:00,23.6,14.0,29.61,West,259,9.0,26.0,68,0.00,,,0.01,weatherlink.com 1.10,2014-01-17 00:21:00,
2014-01-16 18:30:00,24.0,14.8,29.61,West,270,13.0,26.0,72,0.00,,CLR,0.01,VWS V14.01,2014-01-17 00:30:00,
2014-01-16 18:36:00,22.9,14.0,29.62,WNW,286,16.0,24.0,69,0.00,,,0.01,weatherlink.com 1.10,2014-01-17 00:36:00,
2014-01-16 18:51:00,22.3,14.0,29.62,WNW,287,12.0,23.0,70,0.00,,,0.01,weatherlink.com 1.10,2014-01-17 00:51:00,
2014-01-16 19:00:00,23.0,14.0,29.62,West,270,13.0,23.0,72,0.00,,CLR,0.01,VWS V14.01,2014-01-17 01:00:00,
2014-01-16 19:06:00,21.6,14.0,29.63,WNW,283,11.0,22.0,71,0.00,,,0.01,weatherlink.com 1.10,2014-01-17 01:06:00,
2014-01-16 19:21:00,21.1,13.0,29.64,WNW,295,11.0,19.0,72,0.00,,,0.01,weatherlink.com 1.10,2014-01-17 01:21:00,
2014-01-16 19:30:00,22.0,13.4,29.64,West,270,10.0,18.0,73,0.00,,CLR,0.01,VWS V14.01,2014-01-17 01:30:00,
2014-01-16 19:36:00,20.9,13.0,29.64,WNW,290,8.0,15.0,72,0.00,,,0.01,weatherlink.com 1.10,2014-01-17 01:36:00,
2014-01-16 20:00:00,21.0,12.9,29.65,West,270,8.0,16.0,76,0.00,,CLR,0.01,VWS V14.01,2014-01-17 02:00:00,
2014-01-16 20:06:00,19.3,13.0,29.64,NNE,19,5.0,15.0,75,0.00,,,0.01,weatherlink.com 1.10,2014-01-17 02:06:00,
2014-01-16 20:21:00,18.8,12.0,29.65,WNW,286,8.0,14.0,76,0.00,,,0.01,weatherlink.com 1.10,2014-01-17 02:21:00,
2014-01-16 20:30:00,19.0,12.3,29.66,WNW,292,8.0,18.0,77,0.00,,CLR,0.01,VWS V14.01,2014-01-17 02:30:00,
2014-01-16 20:36:00,18.1,12.0,29.66,West,275,6.0,13.0,77,0.00,,,0.01,weatherlink.com 1.10,2014-01-17 02:36:00,
2014-01-16 20:51:00,17.9,12.0,29.67,WNW,299,10.0,16.0,77,0.00,,,0.01,weatherlink.com 1.10,2014-01-17 02:51:00,
2014-01-16 21:00:00,19.0,11.7,29.67,WNW,292,8.0,16.0,77,0.00,,CLR,0.01,VWS V14.01,2014-01-17 03:00:00,
2014-01-16 21:06:00,17.5,11.0,29.68,West,269,6.0,13.0,76,0.00,,,0.01,weatherlink.com 1.10,2014-01-17 03:06:00,
2014-01-16 21:21:00,17.1,11.0,29.68,West,276,5.0,14.0,77,0.00,,,0.01,weatherlink.com 1.10,2014-01-17 03:21:00,
2014-01-16 21:30:00,18.0,10.5,29.68,WNW,292,6.0,14.0,76,0.00,,CLR,0.01,VWS V14.01,2014-01-17 03:30:00,
2014-01-16 21:36:00,16.8,10.0,29.69,West,281,6.0,13.0,76,0.00,,,0.01,weatherlink.com 1.10,2014-01-17 03:36:00,
2014-01-16 21:51:00,16.0,10.0,29.69,NW,306,7.0,13.0,77,0.00,,,0.01,weatherlink.com 1.10,2014-01-17 03:51:00,
2014-01-16 22:00:00,17.0,9.9,29.70,WNW,292,6.0,15.0,78,0.00,,CLR,0.01,VWS V14.01,2014-01-17 04:00:00,
2014-01-16 22:06:00,15.7,10.0,29.70,West,276,5.0,15.0,78,0.00,,,0.01,weatherlink.com 1.10,2014-01-17 04:06:00,
2014-01-16 22:21:00,15.1,10.0,29.70,WNW,296,6.0,13.0,80,0.00,,,0.01,weatherlink.com 1.10,2014-01-17 04:21:00,
2014-01-16 22:30:00,16.0,9.8,29.70,WNW,292,7.0,14.0,80,0.00,,CLR,0.01,VWS V14.01,2014-01-17 04:30:00,
2014-01-16 22:36:00,14.7,10.0,29.70,West,271,13.0,13.0,80,0.00,,,0.01,weatherlink.com 1.10,2014-01-17 04:36:00,
2014-01-16 22:51:00,14.4,10.0,29.71,West,275,10.0,14.0,82,0.00,,,0.01,weatherlink.com 1.10,2014-01-17 04:51:00,
2014-01-16 23:00:00,16.0,9.8,29.71,West,270,7.0,14.0,81,0.00,,CLR,0.01,VWS V14.01,2014-01-17 05:00:00,
2014-01-16 23:06:00,14.2,9.0,29.71,WSW,249,10.0,16.0,81,0.00,,,0.01,weatherlink.com 1.10,2014-01-17 05:06:00,
2014-01-16 23:22:00,14.0,9.0,29.71,West,277,12.0,15.0,81,0.00,,,0.01,weatherlink.com 1.10,2014-01-17 05:22:00,
2014-01-16 23:30:00,15.0,9.2,29.71,WNW,292,8.0,16.0,81,0.00,,CLR,0.01,VWS V14.01,2014-01-17 05:30:00,
2014-01-16 23:37:00,13.8,9.0,29.71,WNW,284,8.0,14.0,81,0.00,,,0.01,weatherlink.com 1.10,2014-01-17 05:37:00,
2014-01-16 23:52:00,13.5,9.0,29.72,WNW,284,8.0,15.0,81,0.00,,,0.01,weatherlink.com 1.10,2014-01-17 05:52:00,